Vertical_Velocity
-3 -3 -4 -4 -4 -4 -4 -3 -3 -3 -4 -5 -6 -6 -7 -7 -8 -7 -6 -6 -7 -8 -8 -8 -8 -8 -7 -5 -4 -4 -4 -3 -1 -1 -1 -1 1 3 5 6 9 10 10 8 6 6 10 19 20 13 4 2 1 -0 -1 -1 0 1 1 0 -1 -1 -2 -2 -1 -0 0 -0 1
-3 -2 -2 -2 -2 -3 -3 -2 -2 -2 -3 -4 -5 -6 -7 -8 -8 -8 -8 -6 -6 -7 -8 -9 -8 -7 -6 -6 -5 -5 -5 -6 -4 -3 -2 -2 -0 2 4 4 4 7 12 14 12 13 15 22 21 14 7 2 -0 -1 -1 -0 0 1 1 1 -0 -1 -3 -3 -2 -1 -1 -0 1
-2 -1 -1 -0 -0 -1 -2 -3 -3 -3 -3 -3 -4 -4 -6 -7 -8 -8 -8 -7 -6 -7 -8 -9 -9 -7 -6 -6 -5 -5 -5 -6 -6 -5 -4 -3 -1 1 3 4 1 5 12 21 21 21 22 24 22 15 6 1 -0 -0 0 0 -0 0 2 3 1 -1 -3 -3 -1 -1 -1 -0 2
0 -0 -0 -1 -1 -2 -3 -4 -4 -4 -4 -4 -3 -4 -4 -5 -6 -6 -7 -6 -6 -6 -6 -8 -9 -9 -7 -5 -5 -5 -5 -5 -6 -6 -6 -4 -2 -0 2 4 1 3 11 24 27 26 25 24 27 19 7 -0 0 1 2 2 -1 -1 1 4 3 0 -2 -2 -2 -2 -2 -0 2
1 1 -0 -1 -2 -2 -2 -3 -4 -4 -4 -4 -4 -4 -4 -4 -5 -6 -6 -7 -6 -5 -5 -6 -8 -8 -7 -5 -5 -5 -4 -4 -5 -6 -6 -5 -3 -1 1 3 1 2 7 18 23 25 26 27 32 23 10 0 1 2 2 1 -1 -2 -1 2 2 2 1 1 -2 -3 -3 -0 1
-1 -1 -1 -1 -1 -1 -2 -2 -2 -2 -3 -4 -4 -4 -4 -5 -5 -5 -6 -7 -7 -6 -5 -5 -6 -6 -6 -5 -4 -4 -4 -4 -4 -4 -5 -6 -4 -2 -0 1 1 1 2 9 14 18 24 29 32 25 13 3 1 -0 -0 0 -1 -2 -2 -1 0 3 4 3 -1 -2 -2 -0 0
-2 -2 -2 -2 -2 -2 -2 -2 -2 -2 -3 -4 -4 -4 -4 -4 -4 -5 -5 -6 -6 -6 -6 -5 -4 -5 -5 -4 -4 -3 -2 -3 -2 -2 -3 -4 -4 -3 -2 0 4 3 1 0 6 11 17 27 31 28 19 8 1 -2 -2 -1 -1 -1 -1 -1 -0 2 4 3 -0 -2 -2 -0 1
-0 -1 -1 -1 -2 -2 -2 -3 -4 -4 -4 -4 -4 -4 -4 -5 -5 -5 -6 -5 -5 -5 -5 -5 -4 -4 -3 -3 -2 -2 -2 -2 -2 -2 -1 -2 -2 -3 -3 -2 5 6 4 -0 5 9 15 23 28 28 24 15 4 -1 -3 -1 -0 0 0 -0 -1 1 3 5 2 -1 -3 -2 1
-0 -0 -0 -1 -1 -2 -3 -3 -3 -4 -4 -4 -4 -4 -4 -4 -5 -6 -6 -6 -6 -5 -5 -5 -4 -3 -2 -1 -1 -1 -1 -1 -2 -1 -1 -0 -1 -2 -4 -4 4 8 8 6 11 14 17 23 25 25 24 19 7 1 -1 2 2 2 1 0 -1 0 2 5 3 -0 -3 -3 -1
-1 -1 -2 -2 -3 -3 -3 -3 -3 -3 -3 -4 -3 -2 -2 -3 -4 -5 -6 -6 -6 -5 -4 -4 -4 -3 -2 -1 -0 -0 -0 -1 -1 -1 -0 1 1 -0 -2 -5 1 5 7 8 15 18 21 24 25 25 23 19 8 2 1 5 6 5 3 1 1 1 2 2 1 -1 -2 -3 -2
-1 -2 -2 -3 -4 -4 -3 -3 -3 -3 -3 -3 -3 -2 -2 -2 -3 -4 -4 -4 -4 -4 -4 -4 -4 -4 -3 -2 -1 -0 -0 -1 -1 -1 -1 1 2 1 -1 -5 -3 -1 1 1 8 16 22 26 26 26 24 18 7 2 1 4 5 5 4 1 1 1 1 -1 -1 -2 -2 -2 -2
-2 -2 -2 -2 -3 -3 -3 -3 -3 -3 -4 -4 -3 -2 -2 -2 -2 -2 -2 -2 -2 -2 -3 -2 -3 -4 -4 -3 -2 -1 -1 -1 -1 -1 -1 0 1 1 -0 -3 -1 1 1 -3 -1 5 12 19 21 22 20 13 4 1 2 4 4 3 1 -1 -0 0 0 -2 -2 -2 -3 -3 -2
-1 -1 -1 -2 -3 -3 -3 -3 -3 -3 -4 -3 -3 -2 -2 -2 -1 -1 -1 -1 -2 -2 -2 -2 -2 -3 -3 -4 -3 -3 -2 -2 -2 -1 -1 -0 0 0 -0 -0 6 13 16 12 5 1 2 7 11 14 13 7 2 2 4 7 5 3 1 -0 0 1 1 0 -1 -3 -4 -4 -4
-1 -1 -1 -2 -3 -3 -3 -3 -3 -3 -3 -3 -2 -2 -2 -2 -1 -1 -1 -1 -1 -2 -2 -3 -2 -2 -2 -3 -3 -3 -3 -3 -2 -1 -1 -0 -1 -1 -1 2 13 24 31 31 23 13 6 4 7 8 6 2 -0 2 5 8 6 4 3 3 2 3 3 2 -2 -4 -4 -3 -2
-1 -1 -1 -1 -2 -3 -3 -3 -3 -4 -4 -3 -3 -3 -3 -3 -2 -1 -0 -0 -0 -1 -2 -4 -3 -2 -2 -3 -3 -3 -2 -2 -2 -1 -0 0 -1 -2 -1 2 12 24 33 38 33 25 18 12 9 6 3 0 1 4 8 10 8 5 3 2 0 0 1 1 -1 -3 -3 -1 0
-1 -1 -1 -1 -2 -3 -3 -3 -4 -4 -4 -4 -3 -4 -4 -4 -2 -1 -0 -0 -0 -1 -2 -3 -4 -3 -3 -3 -2 -0 -0 -1 -1 -0 2 4 3 1 0 2 6 14 23 30 30 28 25 21 16 12 8 6 7 9 10 9 5 2 -0 -1 -2 -2 -2 -0 -0 -1 -1 -1 1
-2 -1 -1 -1 -2 -2 -2 -3 -4 -4 -4 -4 -3 -4 -4 -5 -3 -2 -0 -0 -1 -1 -2 -3 -3 -3 -3 -3 -0 2 3 2 0 1 3 7 8 7 5 4 4 6 9 15 20 24 26 26 24 21 18 16 15 12 8 3 -0 -2 -3 -4 -4 -4 -3 -2 -1 -1 -1 -1 -0
-2 -1 -0 -1 -1 -2 -2 -2 -3 -4 -4 -3 -3 -4 -4 -5 -4 -2 -0 1 0 -1 -2 -2 -2 -2 -2 -2 0 3 5 6 6 4 2 4 6 6 6 4 4 3 2 3 12 19 25 26 26 25 23 21 16 10 3 -2 -3 -4 -4 -5 -5 -5 -5 -4 -3 -2 -1 -0 -1
-3 -2 -1 -1 -2 -2 -2 -2 -3 -3 -3 -3 -3 -3 -4 -5 -4 -3 -1 1 1 -0 -1 -2 -2 -1 -0 -0 1 4 6 8 12 12 8 1 -0 -0 -0 -0 1 1 1 1 7 13 18 19 19 18 16 14 9 3 -1 -3 -3 -3 -4 -4 -5 -5 -5 -5 -4 -2 -0 1 0
-3 -2 -1 -1 -2 -3 -3 -3 -3 -3 -3 -2 -3 -3 -4 -4 -4 -3 -1 0 0 -0 -1 -2 -2 -1 -0 1 3 4 6 8 13 16 16 9 2 -1 -2 -2 -2 -2 -2 -2 1 5 8 9 9 9 8 6 3 -1 -3 -3 -2 -2 -3 -3 -3 -3 -4 -4 -2 0 2 3 4
-2 -1 -1 -1 -2 -3 -3 -3 -3 -3 -3 -2 -2 -3 -3 -4 -4 -3 -1 -0 0 0 -0 -2 -3 -2 -2 -0 2 4 5 7 9 11 13 14 9 5 2 0 0 -0 -0 -1 -0 1 3 4 4 4 3 3 1 -1 -2 -2 -1 -1 -1 -1 -1 -2 -2 -2 1 4 6 6 6
-2 -1 -1 -0 -2 -2 -3 -2 -2 -2 -2 -2 -2 -2 -2 -2 -2 -2 -1 -0 0 0 -0 -1 -2 -3 -3 -2 -0 1 3 5 6 7 8 10 12 10 7 4 2 2 2 2 3 2 2 1 0 -1 -1 -1 -2 -2 -3 -3 -2 -1 -1 -1 -1 -1 -1 -0 3 6 8 7 7
-2 -1 -0 -0 -1 -2 -2 -1 -1 -2 -2 -2 -1 -1 -1 -0 -1 -1 -0 0 0 0 -0 -1 -1 -2 -2 -3 -2 -0 1 3 4 5 6 7 10 12 13 12 9 6 4 4 4 3 2 0 -1 -2 -2 -2 -2 -2 -2 -1 -1 -1 -1 -1 -1 -0 0 1 4 6 8 8 7
-1 -1 -0 -0 -1 -1 -2 -1 -1 -1 -2 -2 -1 -1 -0 0 0 0 0 1 0 0 1 0 -0 -0 -0 -1 -1 -1 1 2 3 3 4 6 7 8 10 13 14 14 14 12 10 8 6 4 3 1 1 1 0 -0 -0 -0 -0 -0 -0 1 1 2 4 4 5 7 8 9 8
-1 -0 -0 0 -1 -1 -2 -1 -1 -1 -2 -3 -2 -1 -0 1 1 1 0 1 1 1 1 2 2 2 2 1 -1 -1 -1 1 1 2 3 5 5 6 6 6 8 10 11 12 11 9 7 6 4 3 1 1 0 -1 -1 -2 -1 -1 0 2 4 6 7 7 7 8 9 10 7
-0 -0 0 0 -0 -1 -1 -1 -0 -1 -2 -3 -2 -1 -0 1 1 1 1 1 1 2 2 2 3 3 3 2 1 -0 -1 -1 -1 0 1 2 3 4 5 6 5 4 4 5 6 6 5 4 3 2 1 0 -0 -1 -2 -2 -2 -0 1 4 5 6 8 8 8 9 9 8 6
-0 -0 0 0 -0 -1 -1 -1 -0 -0 -1 -2 -2 -1 -1 0 1 1 1 1 2 2 2 3 3 3 3 2 2 1 -0 -1 -0 -0 -0 -0 -0 1 3 5 6 6 6 4 3 3 2 2 2 1 1 0 -0 -1 -1 -1 0 2 4 5 6 7 7 8 8 7 6 5 4
-1 -0 -0 0 -0 -0 -1 -0 0 0 -0 -1 -2 -2 -2 -1 0 1 2 2 2 2 2 2 3 3 3 2 2 1 0 -0 -1 -0 -0 -0 -0 1 3 6 9 11 11 10 8 5 4 2 2 1 1 1 1 0 1 1 2 3 4 5 6 6 6 6 6 5 4 3 2
-1 -1 -0 -0 -0 -0 -0 -0 0 0 -0 -1 -2 -2 -2 -1 -0 0 1 2 3 3 3 3 3 3 3 3 2 1 1 -0 -1 -1 -1 -0 -0 1 2 3 6 8 10 10 9 7 5 4 4 3 2 2 2 2 2 3 3 3 4 4 4 4 5 4 4 3 2 2 2
-1 -1 -1 -0 -0 -0 -0 -0 0 0 -0 -1 -2 -2 -2 -2 -1 0 1 2 2 3 3 3 3 3 3 3 2 2 1 0 -0 -0 -0 -1 -0 -0 -0 0 1 2 3 4 4 4 4 4 4 4 4 3 3 3 4 4 4 4 4 4 4 4 4 3 2 2 1 1 2
-1 -1 -0 -0 -0 -0 -0 0 0 0 0 -0 -1 -2 -2 -2 -1 -0 0 1 2 2 3 4 4 3 3 3 3 2 2 1 1 0 -0 -1 -1 -2 -2 -1 -1 -0 -0 1 1 1 1 2 3 4 4 4 4 4 4 4 4 5 5 5 4 4 4 3 2 2 1 2 2
-0 -0 -0 -0 0 0 0 0 0 0 0 -0 -1 -1 -1 -1 -1 -0 0 0 1 1 2 3 4 4 4 3 3 2 2 1 1 1 1 1 -0 -1 -1 -1 -2 -2 -1 -1 -1 -2 -2 -0 1 2 2 2 2 2 2 2 3 4 4 5 4 4 3 3 3 2 2 2 3
0 1 1 1 1 1 1 0 0 0 0 0 -0 -1 -1 -1 -0 0 1 1 0 0 0 1 2 3 4 4 3 3 2 1 1 1 1 1 1 1 0 -0 -0 -0 -0 -0 -1 -2 -3 -1 0 0 -0 -0 -0 -0 0 1 1 2 3 3 3 3 3 3 2 2 3 3 3
1 1 1 1 1 1 1 0 0 0 0 0 0 -0 -0 -1 0 1 2 2 0 -0 -1 -0 1 2 2 3 3 3 3 2 2 2 2 3 3 2 2 1 1 1 1 1 -0 -2 -3 -2 0 0 -0 -0 -0 -0 0 0 0 1 1 2 1 1 1 1 2 2 3 3 4
0 0 1 1 1 1 1 1 0 0 0 0 1 0 0 -0 1 1 2 2 1 -0 -2 -2 -0 0 1 1 2 2 2 2 3 3 4 4 4 4 3 2 2 3 3 3 1 -1 -3 -3 -0 0 0 0 1 1 1 1 1 1 1 1 0 -0 -1 -0 1 2 2 3 4
-0 -0 -0 0 0 1 1 1 1 1 1 0 0 0 1 1 1 2 2 3 2 1 -0 -2 -2 -1 -0 1 1 2 2 3 3 3 4 4 4 4 3 2 3 4 5 6 4 0 -2 -3 -2 -2 -1 -0 1 1 1 1 1 1 1 1 -0 -1 -2 -2 -0 1 2 3 3
-1 -1 -1 -1 -0 -0 0 0 0 1 1 1 1 0 0 0 1 2 2 3 3 3 1 -2 -4 -3 -1 1 2 2 3 4 4 3 3 3 4 4 3 3 3 5 6 8 6 2 -1 -3 -4 -4 -4 -2 -1 -1 -0 0 0 0 0 -0 -1 -2 -2 -2 -0 1 2 2 1
-0 -1 -1 -1 -1 -1 -0 -0 -0 0 1 1 1 1 0 -0 1 1 2 2 3 3 2 -0 -3 -3 -2 0 2 2 3 4 4 3 2 1 2 2 2 2 3 4 6 9 6 2 -1 -4 -5 -5 -5 -4 -4 -3 -2 -1 -1 -1 -1 -1 -1 -2 -2 -1 0 2 2 1 0
-1 -1 -1 -1 -1 -1 -1 -0 -0 -0 -0 0 1 1 1 0 0 1 1 2 2 2 2 1 -1 -2 -2 -0 1 2 2 3 3 2 1 1 2 2 1 1 2 3 4 7 5 2 -2 -4 -4 -5 -5 -4 -4 -4 -3 -2 -2 -1 -1 -1 -1 -1 -1 -0 1 2 2 1 -0
-1 -1 -1 -1 -1 -1 -1 -0 -0 -0 -0 -0 -0 1 1 1 1 1 1 1 1 1 1 1 0 -1 -1 -1 -0 0 1 1 2 1 1 1 2 2 1 1 2 2 3 4 2 0 -1 -1 -2 -3 -3 -3 -2 -2 -2 -1 -1 -1 -0 -0 0 -0 -0 0 1 2 1 1 0
-1 -1 -0 0 0 -0 -0 -1 -0 -0 -0 -0 -0 -0 1 1 1 1 1 1 1 1 1 1 1 0 -0 -1 -1 -1 -1 -0 0 1 1 2 3 2 2 1 2 2 2 2 1 1 -0 0 -1 -2 -2 -1 -0 -0 -0 -0 0 0 1 1 1 1 1 1 1 1 1 1 1
Height
3006 3004 3002 3001 2999 2998 2997 2996 2994 2993 2991 2990 2988 2987 2985 2984 2982 2981 2979 2978 2976 2974 2973 2972 2971 2971 2970 2969 2969 2969 2969 2970 2971 2971 2971 2971 2972 2973 2974 2975 2976 2976 2976 2976 2977 2977 2979 2980 2981 2982 2983 2984 2985 2986 2987 2987 2989 2989 2990 2991 2991 2992 2992 2993 2994 2995 2996 2997 2998
3004 3002 3001 3000 2998 2997 2995 2994 2993 2992 2990 2988 2987 2985 2983 2982 2980 2978 2977 2976 2974 2972 2971 2969 2968 2967 2967 2966 2966 2966 2966 2966 2967 2967 2967 2967 2968 2969 2971 2972 2973 2974 2974 2973 2974 2975 2976 2977 2978 2978 2979 2981 2982 2982 2983 2985 2986 2987 2987 2988 2989 2989 2990 2991 2992 2992 2993 2995 2996
3002 3001 3000 2998 2997 2995 2993 2992 2991 2989 2988 2986 2985 2983 2981 2979 2977 2976 2974 2973 2971 2970 2968 2967 2965 2964 2963 2963 2962 2962 2962 2962 2962 2963 2963 2964 2965 2966 2967 2969 2971 2972 2972 2972 2972 2973 2974 2975 2975 2975 2976 2977 2978 2980 2981 2982 2983 2984 2985 2985 2986 2987 2988 2989 2989 2990 2991 2992 2993
3001 2999 2998 2996 2995 2993 2991 2990 2988 2987 2985 2984 2982 2981 2979 2977 2975 2973 2971 2970 2968 2967 2965 2963 2962 2961 2960 2959 2959 2958 2958 2958 2958 2959 2960 2961 2962 2962 2963 2966 2968 2969 2970 2970 2970 2971 2971 2971 2971 2972 2973 2974 2976 2977 2977 2978 2980 2981 2982 2982 2984 2985 2986 2987 2987 2988 2989 2990 2991
2999 2998 2996 2994 2992 2991 2989 2988 2986 2984 2983 2981 2979 2978 2976 2974 2972 2970 2968 2966 2965 2963 2961 2960 2958 2957 2956 2956 2955 2955 2955 2955 2955 2955 2956 2957 2958 2959 2961 2963 2965 2967 2968 2968 2967 2967 2968 2968 2969 2969 2969 2971 2973 2974 2975 2976 2977 2977 2978 2980 2981 2982 2983 2984 2985 2986 2987 2988 2989
2997 2996 2994 2992 2991 2989 2987 2986 2984 2982 2980 2978 2977 2975 2973 2971 2969 2967 2965 2962 2961 2959 2957 2956 2954 2953 2952 2952 2951 2951 2951 2951 2952 2952 2952 2953 2955 2956 2957 2960 2962 2963 2965 2966 2965 2964 2965 2966 2967 2966 2966 2968 2970 2971 2972 2973 2974 2974 2975 2977 2978 2979 2981 2982 2983 2985 2986 2986 2987
2996 2994 2992 2990 2988 2987 2985 2983 2982 2980 2978 2976 2974 2972 2970 2968 2966 2963 2961 2959 2957 2955 2953 2951 2950 2948 2948 2947 2947 2947 2947 2947 2948 2948 2949 2950 2951 2952 2954 2957 2958 2960 2961 2963 2963 2962 2962 2962 2962 2962 2962 2965 2967 2968 2969 2970 2971 2972 2972 2974 2975 2976 2978 2979 2981 2983 2984 2985 2986
2994 2992 2990 2988 2987 2985 2983 2981 2979 2977 2976 2973 2971 2969 2967 2965 2962 2960 2957 2955 2952 2950 2948 2947 2945 2944 2943 2943 2943 2943 2943 2944 2944 2945 2945 2946 2947 2949 2951 2953 2955 2957 2958 2960 2961 2960 2959 2959 2959 2959 2960 2961 2964 2966 2967 2968 2968 2969 2970 2971 2972 2974 2975 2977 2978 2980 2982 2983 2984
2992 2991 2989 2987 2985 2983 2981 2979 2977 2975 2973 2971 2969 2967 2964 2962 2959 2957 2954 2951 2949 2947 2944 2942 2941 2940 2939 2939 2939 2940 2940 2940 2941 2941 2942 2943 2944 2946 2948 2950 2952 2954 2955 2957 2957 2957 2956 2956 2956 2956 2957 2959 2961 2963 2964 2966 2967 2967 2968 2969 2971 2972 2974 2975 2976 2977 2979 2981 2982
2991 2989 2987 2985 2983 2981 2979 2977 2975 2973 2971 2969 2967 2965 2962 2959 2957 2953 2951 2948 2946 2943 2941 2939 2938 2937 2936 2936 2936 2936 2937 2937 2937 2938 2939 2940 2941 2943 2945 2947 2949 2951 2952 2954 2954 2953 2953 2952 2953 2953 2954 2955 2957 2960 2962 2964 2965 2965 2966 2967 2969 2970 2971 2972 2974 2975 2977 2978 2980
2989 2987 2985 2983 2981 2979 2977 2975 2973 2971 2969 2967 2964 2962 2960 2957 2954 2951 2948 2946 2943 2941 2939 2937 2936 2935 2934 2933 2933 2934 2934 2934 2935 2935 2936 2937 2938 2940 2942 2944 2946 2948 2950 2951 2951 2951 2951 2950 2950 2951 2951 2953 2955 2958 2961 2962 2963 2964 2965 2965 2967 2968 2969 2970 2971 2972 2974 2975 2977
2987 2985 2983 2981 2979 2977 2975 2972 2971 2968 2967 2964 2962 2960 2957 2955 2952 2949 2946 2944 2942 2940 2938 2936 2935 2933 2932 2932 2932 2932 2932 2932 2932 2932 2933 2934 2936 2937 2939 2942 2943 2945 2947 2948 2949 2949 2949 2948 2948 2948 2949 2951 2954 2957 2958 2960 2961 2962 2963 2963 2965 2965 2966 2967 2968 2969 2970 2972 2973
2985 2983 2981 2979 2977 2974 2972 2970 2968 2966 2964 2962 2960 2957 2955 2952 2949 2947 2944 2942 2940 2938 2937 2935 2934 2932 2931 2931 2930 2930 2930 2930 2930 2930 2931 2932 2933 2935 2937 2939 2941 2942 2943 2944 2946 2947 2947 2947 2946 2947 2948 2950 2952 2954 2956 2957 2958 2959 2960 2961 2962 2963 2963 2963 2964 2966 2967 2968 2969
2983 2981 2979 2977 2975 2972 2970 2968 2966 2964 2962 2960 2958 2955 2953 2950 2947 2945 2942 2941 2939 2937 2936 2934 2933 2932 2930 2929 2929 2928 2928 2928 2928 2928 2929 2930 2931 2933 2934 2936 2937 2939 2940 2941 2942 2943 2944 2944 2945 2946 2947 2948 2950 2952 2952 2953 2955 2956 2957 2958 2959 2960 2961 2961 2962 2963 2964 2965 2966
2982 2980 2977 2975 2973 2971 2968 2966 2964 2962 2960 2958 2956 2953 2951 2948 2946 2943 2941 2939 2938 2936 2935 2933 2932 2931 2929 2928 2928 2927 2927 2926 2926 2927 2927 2928 2930 2931 2932 2932 2934 2936 2937 2938 2939 2940 2940 2941 2942 2943 2944 2945 2947 2948 2949 2950 2951 2953 2954 2955 2956 2957 2958 2959 2960 2960 2961 2962 2962
2980 2978 2976 2973 2971 2969 2967 2965 2962 2960 2958 2956 2954 2952 2949 2947 2944 2942 2940 2938 2937 2935 2934 2932 2931 2930 2929 2928 2927 2927 2926 2925 2925 2925 2926 2927 2929 2930 2930 2931 2932 2933 2935 2936 2937 2938 2939 2939 2940 2940 2941 2942 2944 2945 2946 2947 2947 2949 2950 2951 2952 2954 2955 2956 2957 2958 2958 2958 2959
2978 2976 2974 2972 2970 2967 2965 2963 2961 2958 2957 2955 2952 2950 2948 2946 2943 2941 2939 2937 2936 2934 2933 2932 2930 2929 2928 2927 2927 2926 2925 2925 2925 2925 2926 2927 2928 2929 2930 2931 2931 2931 2932 2934 2935 2936 2937 2937 2938 2938 2939 2940 2941 2942 2942 2943 2944 2946 2947 2948 2949 2951 2952 2953 2954 2954 2955 2955 2956
2976 2974 2972 2970 2968 2966 2964 2962 2959 2957 2955 2953 2951 2949 2947 2944 2942 2940 2938 2937 2935 2934 2932 2931 2930 2928 2927 2927 2927 2926 2925 2925 2925 2925 2926 2927 2928 2929 2929 2930 2930 2930 2931 2932 2932 2933 2933 2934 2935 2936 2936 2937 2938 2938 2939 2940 2942 2943 2944 2945 2947 2948 2949 2950 2950 2951 2951 2952 2953
2974 2972 2970 2968 2966 2964 2962 2960 2957 2956 2953 2952 2950 2948 2946 2944 2942 2940 2937 2936 2934 2933 2932 2930 2929 2928 2927 2927 2926 2926 2925 2925 2925 2925 2926 2926 2926 2927 2927 2928 2928 2928 2929 2930 2931 2931 2931 2932 2932 2933 2933 2934 2935 2936 2937 2938 2940 2941 2942 2943 2944 2945 2946 2947 2947 2947 2947 2948 2950
2972 2970 2968 2966 2964 2962 2960 2958 2956 2954 2952 2950 2949 2947 2945 2943 2941 2939 2937 2935 2934 2932 2931 2930 2928 2927 2926 2926 2926 2925 2925 2924 2924 2925 2926 2926 2925 2926 2926 2926 2927 2927 2927 2928 2929 2929 2929 2929 2930 2931 2932 2932 2933 2934 2935 2937 2937 2939 2940 2941 2942 2942 2943 2943 2944 2944 2945 2946 2947
2970 2968 2967 2965 2962 2961 2958 2957 2954 2952 2951 2949 2947 2946 2944 2942 2941 2939 2937 2935 2933 2932 2931 2929 2928 2927 2926 2925 2925 2924 2924 2924 2923 2923 2924 2925 2925 2925 2925 2926 2926 2926 2927 2927 2928 2928 2928 2928 2929 2929 2930 2931 2932 2933 2934 2934 2935 2936 2937 2938 2939 2940 2940 2940 2941 2942 2942 2944 2945
2968 2967 2965 2963 2961 2959 2957 2955 2953 2951 2950 2948 2947 2945 2943 2942 2940 2938 2937 2935 2933 2932 2930 2929 2928 2927 2926 2925 2924 2923 2923 2923 2923 2922 2922 2923 2923 2924 2924 2924 2924 2925 2926 2926 2927 2927 2927 2927 2928 2928 2929 2929 2930 2931 2931 2932 2933 2934 2934 2935 2936 2937 2937 2938 2938 2939 2940 2941 2942
2967 2965 2963 2961 2959 2957 2956 2954 2952 2950 2948 2947 2945 2944 2942 2941 2939 2938 2937 2935 2933 2932 2930 2929 2928 2927 2926 2925 2924 2923 2922 2922 2922 2922 2922 2922 2922 2922 2922 2922 2922 2923 2924 2925 2925 2926 2926 2926 2926 2926 2927 2927 2927 2928 2929 2929 2930 2931 2932 2932 2933 2934 2935 2935 2936 2937 2937 2938 2940
2965 2963 2961 2960 2958 2956 2954 2952 2951 2949 2947 2946 2944 2942 2941 2940 2939 2937 2936 2935 2933 2932 2930 2929 2928 2927 2926 2925 2924 2923 2922 2921 2921 2921 2921 2921 2921 2921 2921 2920 2921 2921 2922 2922 2923 2923 2923 2924 2924 2924 2924 2925 2925 2926 2927 2927 2928 2928 2929 2930 2931 2932 2932 2933 2934 2934 2935 2936 2937
2963 2961 2960 2958 2956 2954 2952 2951 2949 2947 2946 2944 2942 2941 2940 2939 2938 2937 2936 2934 2933 2932 2930 2929 2928 2927 2926 2925 2924 2923 2922 2921 2920 2920 2920 2920 2920 2920 2921 2920 2920 2920 2920 2920 2921 2921 2921 2922 2922 2922 2922 2923 2923 2924 2924 2925 2926 2926 2927 2928 2928 2929 2930 2931 2931 2932 2933 2933 2934
2961 2959 2958 2956 2954 2952 2951 2949 2948 2946 2944 2942 2941 2940 2939 2937 2937 2936 2935 2934 2933 2932 2930 2929 2928 2927 2926 2925 2924 2922 2922 2921 2920 2919 2919 2919 2919 2919 2919 2920 2920 2920 2920 2920 2920 2920 2920 2920 2920 2921 2921 2921 2922 2922 2922 2923 2923 2924 2925 2925 2926 2927 2928 2928 2929 2929 2930 2931 2931
2959 2957 2956 2954 2953 2951 2949 2948 2947 2945 2943 2941 2940 2939 2937 2936 2935 2934 2934 2933 2932 2931 2930 2929 2928 2927 2926 2925 2923 2922 2921 2921 2920 2919 2918 2918 2918 2918 2918 2919 2919 2919 2919 2919 2919 2918 2919 2919 2919 2919 2920 2920 2920 2921 2921 2921 2922 2922 2923 2923 2924 2925 2925 2926 2926 2927 2927 2928 2928
2957 2956 2954 2952 2951 2949 2948 2947 2945 2943 2942 2940 2939 2937 2936 2935 2934 2933 2932 2932 2931 2930 2929 2928 2927 2926 2925 2924 2923 2922 2921 2920 2920 2919 2918 2918 2918 2917 2917 2918 2918 2918 2918 2918 2917 2917 2917 2918 2918 2918 2918 2919 2919 2919 2919 2920 2920 2920 2921 2921 2922 2922 2922 2923 2923 2924 2924 2925 2926
2955 2954 2952 2951 2949 2948 2946 2945 2943 2942 2941 2939 2937 2936 2935 2933 2932 2932 2931 2930 2930 2929 2928 2927 2927 2926 2924 2923 2922 2922 2921 2920 2919 2918 2918 2917 2917 2917 2917 2917 2917 2917 2917 2917 2917 2917 2917 2917 2917 2917 2917 2917 2917 2918 2918 2918 2918 2918 2919 2919 2919 2920 2920 2920 2921 2921 2922 2922 2923
2953 2952 2950 2949 2947 2946 2945 2943 2942 2941 2939 2938 2936 2935 2934 2932 2931 2930 2929 2929 2928 2928 2927 2927 2926 2925 2924 2922 2922 2921 2920 2919 2918 2918 2917 2917 2916 2916 2916 2916 2916 2916 2916 2916 2916 2916 2916 2916 2916 2916 2916 2916 2916 2916 2917 2917 2917 2917 2917 2917 2917 2917 2917 2917 2918 2918 2919 2920 2921
2952 2950 2949 2947 2946 2945 2943 2942 2940 2939 2938 2936 2935 2934 2932 2931 2930 2929 2928 2927 2927 2926 2926 2925 2925 2924 2923 2922 2921 2920 2919 2918 2917 2917 2917 2916 2915 2915 2915 2914 2914 2915 2915 2915 2915 2915 2915 2915 2915 2915 2915 2915 2915 2915 2915 2915 2915 2915 2915 2915 2915 2915 2915 2916 2916 2917 2917 2918 2919
2951 2949 2947 2946 2945 2943 2942 2940 2939 2937 2936 2935 2934 2932 2931 2930 2929 2927 2927 2926 2925 2924 2924 2923 2923 2922 2922 2921 2920 2919 2918 2917 2917 2916 2915 2915 2914 2914 2913 2913 2913 2913 2913 2913 2913 2913 2913 2914 2914 2914 2914 2914 2914 2914 2914 2914 2914 2914 2914 2914 2913 2913 2914 2914 2914 2915 2915 2916 2917
2949 2948 2946 2945 2943 2942 2940 2939 2937 2936 2935 2934 2932 2931 2930 2929 2928 2927 2926 2924 2923 2922 2922 2921 2921 2920 2920 2920 2919 2918 2917 2916 2915 2915 2914 2914 2913 2913 2912 2912 2912 2912 2912 2912 2912 2912 2912 2912 2912 2912 2912 2912 2913 2913 2913 2913 2913 2913 2912 2912 2912 2912 2912 2912 2912 2913 2913 2914 2914
2948 2947 2945 2943 2942 2940 2939 2937 2936 2935 2933 2932 2931 2930 2929 2928 2927 2926 2925 2923 2922 2921 2920 2919 2918 2918 2918 2918 2917 2917 2916 2915 2914 2914 2913 2913 2912 2912 2911 2911 2911 2911 2911 2910 2910 2910 2910 2909 2910 2910 2910 2911 2911 2911 2911 2912 2912 2911 2911 2911 2911 2911 2911 2911 2911 2911 2911 2912 2912
2947 2945 2944 2942 2941 2939 2937 2936 2935 2933 2932 2931 2930 2929 2928 2927 2926 2925 2924 2922 2921 2920 2918 2917 2917 2916 2916 2915 2915 2915 2914 2914 2913 2913 2912 2912 2911 2911 2910 2910 2909 2909 2909 2909 2909 2908 2908 2907 2907 2908 2908 2908 2909 2909 2909 2909 2910 2910 2910 2910 2909 2909 2909 2909 2909 2909 2909 2910 2910
2946 2944 2942 2941 2939 2937 2936 2935 2933 2932 2931 2930 2928 2927 2927 2926 2924 2923 2922 2922 2920 2919 2917 2916 2915 2914 2913 2913 2913 2913 2912 2912 2912 2912 2911 2911 2910 2909 2909 2908 2908 2908 2908 2908 2908 2907 2906 2905 2905 2906 2906 2906 2907 2907 2907 2907 2908 2908 2908 2908 2908 2907 2907 2907 2907 2907 2907 2908 2908
2944 2942 2941 2939 2937 2936 2935 2933 2932 2931 2929 2928 2927 2926 2925 2924 2923 2922 2921 2920 2919 2918 2916 2915 2913 2912 2912 2911 2911 2911 2911 2911 2910 2910 2910 2909 2909 2908 2907 2907 2907 2907 2907 2907 2907 2906 2903 2902 2902 2903 2903 2904 2904 2905 2905 2905 2906 2906 2906 2906 2906 2906 2905 2905 2905 2905 2906 2906 2906
2942 2941 2939 2937 2936 2935 2933 2932 2931 2929 2928 2927 2926 2925 2923 2922 2922 2921 2920 2919 2918 2917 2915 2913 2912 2911 2910 2910 2909 2909 2909 2909 2908 2908 2907 2907 2907 2906 2906 2906 2905 2905 2906 2906 2906 2904 2901 2900 2900 2900 2900 2901 2902 2902 2902 2902 2903 2903 2903 2903 2903 2903 2903 2903 2903 2903 2903 2903 2903
2941 2939 2938 2936 2935 2933 2932 2931 2929 2928 2927 2925 2924 2923 2922 2921 2920 2919 2918 2917 2916 2915 2914 2913 2911 2910 2909 2908 2908 2907 2907 2907 2907 2906 2905 2905 2905 2904 2904 2904 2903 2903 2903 2904 2904 2902 2899 2898 2898 2898 2898 2898 2899 2899 2899 2900 2900 2900 2900 2900 2900 2900 2900 2900 2901 2901 2901 2901 2901
2940 2938 2937 2935 2933 2932 2931 2929 2928 2927 2925 2924 2923 2922 2921 2920 2919 2918 2917 2916 2915 2914 2912 2912 2910 2909 2908 2907 2907 2906 2906 2905 2905 2904 2904 2903 2903 2903 2902 2902 2902 2902 2901 2901 2901 2900 2897 2897 2897 2896 2896 2896 2897 2897 2897 2897 2897 2897 2897 2897 2897 2897 2897 2898 2898 2899 2899 2899 2899
2938 2937 2935 2934 2932 2931 2929 2928 2927 2925 2924 2923 2922 2920 2919 2918 2917 2916 2915 2914 2913 2912 2911 2910 2909 2908 2907 2907 2906 2905 2904 2903 2903 2902 2902 2902 2902 2902 2901 2900 2900 2900 2899 2899 2899 2898 2897 2896 2896 2895 2895 2895 2895 2895 2895 2895 2895 2895 2895 2895 2895 2895 2896 2896 2896 2896 2897 2897 2897